EW2353 Weather Reports


time (UTC)temp
C
wind
direction
speed
KPH
gust
KPH
rain 1hr
cm
rain 24hr
cm
rain mn
cm
humidity
%
barometer
mb
20260507191812 15 15 4.8 14.5 0.00 0.00 0.00 49 1014.8
20260507191325 15 254 4.8 12.9 0.00 0.00 0.00 45 1014.8
20260507190822 15 62 4.8 12.9 0.00 0.00 0.00 52 1014.8
20260507190315 15 15 4.8 12.9 0.00 0.00 0.00 52 1014.9
20260507185827 15 338 1.6 9.7 0.00 0.00 0.00 48 1015.0
20260507185320 15 283 1.6 14.5 0.00 0.00 0.00 47 1015.0
20260507184813 15 281 3.2 12.9 0.00 0.00 0.00 52 1015.0
20260507184326 15 358 1.6 12.9 0.00 0.00 0.00 57 1015.0
20260507183819 14 348 3.2 16.1 0.00 0.00 0.00 50 1015.1
20260507183312 14 30 6.4 17.7 0.00 0.00 0.00 44 1015.0
20260507182829 15 26 6.4 16.1 0.00 0.00 0.00 46 1014.9
20260507182322 15 24 4.8 16.1 0.00 0.00 0.00 49 1015.3
20260507181814 15 337 1.6 14.5 0.00 0.00 0.00 56 1015.2
20260507181327 15 358 1.6 14.5 0.00 0.00 0.00 56 1015.2
20260507180820 14 8 1.6 16.1 0.00 0.00 0.00 58 1015.3
20260507180313 14 336 8.0 24.1 0.00 0.00 0.00 50 1015.3
20260507175826 14 359 9.7 24.1 0.00 0.00 0.00 49 1015.2
20260507175318 14 359 4.8 19.3 0.00 0.00 0.00 51 1015.3
20260507174815 14 41 4.8 19.3 0.00 0.00 0.00 54 1015.5
20260507174328 14 290 4.8 12.9 0.00 0.00 0.00 52 1015.4
20260507173821 14 293 4.8 12.9 0.00 0.00 0.00 54 1015.6
20260507173314 14 278 3.2 20.9 0.00 0.00 0.00 54 1015.7
20260507172827 14 148 4.8 20.9 0.00 0.00 0.00 52 1015.6
20260507172319 14 21 8.0 19.3 0.00 0.00 0.00 50 1015.8
20260507171812 14 294 1.6 14.5 0.00 0.00 0.00 56 1015.8
20260507171346 15 342 6.4 14.5 0.00 0.00 0.00 56 1015.9
20260507170821 15 294 1.6 9.7 0.00 0.00 0.00 54 1016.0
20260507170314 14 341 1.6 17.7 0.00 0.00 0.00 53 1015.9
20260507165827 14 266 0.0 11.3 0.00 0.00 0.00 56 1016.0
20260507165320 14 112 3.2 11.3 0.00 0.00 0.00 54 1016.1
20260507164813 14 269 1.6 14.5 0.00 0.00 0.00 57 1016.0
20260507164325 13 288 1.6 14.5 0.00 0.00 0.00 56 1016.1
20260507163818 13 278 4.8 14.5 0.00 0.00 0.00 53 1016.1
20260507163311 14 272 3.2 9.7 0.00 0.00 0.00 56 1016.1
20260507162828 13 6 4.8 9.7 0.00 0.00 0.00 52 1016.2
20260507162321 13 291 1.6 9.7 0.00 0.00 0.00 53 1016.2
20260507161814 13 6 3.2 9.7 0.00 0.00 0.00 50 1016.2
20260507161326 13 89 1.6 19.3 0.00 0.00 0.00 51 1016.2
20260507160818 13 322 3.2 19.3 0.00 0.00 0.00 56 1016.4
20260507160311 13 286 3.2 11.3 0.00 0.00 0.00 54 1016.4
20260507155821 13 270 1.6 11.3 0.00 0.00 0.00 58 1016.3
20260507155314 13 290 1.6 11.3 0.00 0.00 0.00 55 1016.2
20260507154811 13 279 3.2 9.7 0.00 0.00 0.00 49 1016.3
20260507154344 13 263 0.0 8.0 0.00 0.00 0.00 58 1016.2
20260507153816 12 350 1.6 14.5 0.00 0.00 0.00 55 1016.2
20260507153328 12 319 3.2 12.9 0.00 0.00 0.00 58 1016.2
20260507152821 12 253 6.4 14.5 0.00 0.00 0.00 56 1016.2
20260507152314 12 331 6.4 14.5 0.00 0.00 0.00 56 1016.3
20260507151848 12 274 3.2 11.3 0.00 0.00 0.00 57 1016.2
20260507151339 12 172 1.6 9.7 0.00 0.00 0.00 55 1016.3
20260507150811 12 12 1.6 16.1 0.00 0.00 0.00 57 1016.3
20260507150324 12 323 6.4 16.1 0.00 0.00 0.00 54 1016.2
20260507145840 12 37 3.2 14.5 0.00 0.00 0.00 56 1016.2
20260507145313 12 337 6.4 14.5 0.00 0.00 0.00 55 1016.1
20260507144825 12 248 1.6 11.3 0.00 0.00 0.00 54 1016.2
20260507144318 12 338 1.6 12.9 0.00 0.00 0.00 59 1016.2
20260507143811 11 302 3.2 14.5 0.00 0.00 0.00 58 1016.1
20260507143324 12 276 1.6 9.7 0.00 0.00 0.00 60 1016.1
20260507142816 11 274 1.6 9.7 0.00 0.00 0.00 56 1016.1
20260507142329 11 28 1.6 16.1 0.00 0.00 0.00 58 1016.2
20260507141827 11 42 4.8 16.1 0.00 0.00 0.00 58 1016.3
20260507141319 11 246 4.8 14.5 0.00 0.00 0.00 56 1016.2
20260507140812 11 49 3.2 14.5 0.00 0.00 0.00 56 1016.2
20260507140325 11 12 1.6 9.7 0.00 0.00 0.00 57 1016.2
20260507135817 11 278 0.0 6.4 0.00 0.00 0.00 62 1016.2
20260507135330 11 72 1.6 8.0 0.00 0.00 0.00 61 1016.2
20260507134843 11 288 1.6 8.0 0.00 0.00 0.00 64 1016.2
20260507134314 11 19 1.6 11.3 0.00 0.00 0.00 64 1016.2
20260507133811 10 153 0.0 9.7 0.00 0.00 0.00 65 1016.1
20260507133345 10 33 1.6 6.4 0.00 0.00 0.00 62 1016.1
20260507132816 10 268 0.0 6.4 0.00 0.00 0.00 69 1016.1
20260507132329 10 42 0.0 9.7 0.00 0.00 0.00 64 1016.1
20260507131842 10 5 4.8 9.7 0.00 0.00 0.00 64 1016.2
20260507131313 10 8 1.6 9.7 0.00 0.00 0.00 67 1016.1
20260507130847 10 238 1.6 9.7 0.00 0.00 0.00 66 1016.1
20260507130318 10 339 1.6 8.0 0.00 0.00 0.00 66 1016.1
20260507125811 10 281 0.0 0.0 0.00 0.00 0.00 70 1016.2
20260507125324 10 275 0.0 0.0 0.00 0.00 0.00 71 1016.1
20260507124821 10 255 0.0 0.0 0.00 0.00 0.00 70 1016.2
20260507124313 10 319 0.0 0.0 0.00 0.00 0.00 73 1016.1
20260507123847 9 327 0.0 3.2 0.00 0.00 0.00 74 1016.1
20260507123319 9 284 0.0 1.6 0.00 0.00 0.00 75 1016.2
20260507122811 8 266 0.0 3.2 0.00 0.00 0.00 76 1016.2
20260507122324 8 353 0.0 4.8 0.00 0.00 0.00 78 1016.2
20260507121817 8 229 0.0 4.8 0.00 0.00 0.00 76 1016.0
20260507121330 8 9 0.0 1.6 0.00 0.00 0.00 76 1016.0
20260507120823 8 11 0.0 1.6 0.00 0.00 0.00 78 1016.1
20260507120319 8 271 0.0 1.6 0.00 0.00 0.00 76 1016.0
20260507115812 8 271 0.0 1.6 0.00 0.00 0.00 80 1016.2
20260507115325 8 260 0.0 0.0 0.00 0.00 0.00 81 1016.1
20260507114817 7 300 0.0 0.0 0.00 0.00 0.00 83 1016.0
20260507114330 7 300 0.0 0.0 0.00 0.00 0.00 84 1016.0
20260507113823 6 300 0.0 0.0 0.00 0.00 0.00 87 1016.1
20260507113336 6 300 0.0 0.0 0.00 0.00 0.00 89 1016.1
20260507112827 5 300 0.0 0.0 0.00 0.00 0.00 91 1016.0
20260507112341 4 300 0.0 0.0 0.00 0.00 0.00 93 1016.0
20260507111816 3 300 0.0 0.0 0.00 0.00 0.00 93 1016.1
20260507111329 3 300 0.0 0.0 0.00 0.00 0.00 93 1016.0
20260507110842 2 300 0.0 0.0 0.00 0.00 0.00 93 1016.0
20260507110334 2 300 0.0 0.0 0.00 0.00 0.00 93 1015.9
20260507105825 2 300 0.0 0.0 0.00 0.00 0.00 93 1015.8
20260507105318 2 300 0.0 0.0 0.00 0.00 0.00 93 1015.7
20260507104811 2 300 0.0 0.0 0.00 0.00 0.00 93 1015.6
20260507104324 2 300 0.0 0.0 0.00 0.00 0.00 92 1015.6
20260507103817 1 300 0.0 0.0 0.00 0.00 0.00 92 1015.5
20260507103314 1 300 0.0 0.0 0.00 0.00 0.00 90 1015.5
20260507102827 2 300 0.0 0.0 0.00 0.00 0.00 90 1015.5
20260507102320 2 300 0.0 0.0 0.00 0.00 0.00 90 1015.5
20260507101812 2 300 0.0 0.0 0.00 0.00 0.00 89 1015.5
20260507101325 2 300 0.0 0.0 0.00 0.00 0.00 89 1015.5
20260507100818 3 300 0.0 0.0 0.00 0.00 0.00 89 1015.5
20260507100311 3 300 0.0 0.0 0.00 0.00 0.00 89 1015.5
20260507095824 3 300 0.0 0.0 0.00 0.00 0.00 89 1015.5
20260507095341 3 300 0.0 0.0 0.00 0.00 0.00 89 1015.5
20260507094812 3 300 0.0 0.0 0.00 0.00 0.00 89 1015.4
20260507094326 3 300 0.0 0.0 0.00 0.00 0.00 89 1015.5
20260507093818 3 300 0.0 0.0 0.00 0.00 0.00 89 1015.5
20260507093311 3 300 0.0 3.2 0.00 0.00 0.00 89 1015.5
20260507092844 4 110 0.0 0.0 0.00 0.00 0.00 89 1015.5
20260507092316 4 143 0.0 0.0 0.00 0.00 0.00 90 1015.5
20260507091849 4 143 0.0 1.6 0.00 0.00 0.00 90 1015.5
20260507091320 4 143 0.0 0.0 0.00 0.00 0.00 90 1015.4
20260507090817 4 271 0.0 1.6 0.00 0.00 0.00 91 1015.4
20260507090330 4 90 0.0 1.6 0.00 0.00 0.00 91 1015.5
20260507085823 4 34 0.0 1.6 0.00 0.00 0.00 92 1015.3
20260507085316 4 54 0.0 1.6 0.00 0.00 0.00 92 1015.3
20260507084829 4 54 0.0 1.6 0.00 0.00 0.00 93 1015.3
20260507084321 4 34 0.0 1.6 0.00 0.00 0.00 93 1015.3
20260507083814 4 279 0.0 1.6 0.00 0.00 0.00 94 1015.2
20260507083328 4 251 0.0 0.0 0.00 0.00 0.00 94 1015.2
20260507082824 3 248 0.0 0.0 0.00 0.00 0.00 95 1015.1
20260507082317 3 248 0.0 0.0 0.00 0.00 0.00 95 1015.0
20260507081830 3 355 0.0 0.0 0.00 0.00 0.00 95 1015.0
20260507081323 3 355 0.0 0.0 0.00 0.00 0.00 96 1015.0
20260507080816 3 355 0.0 0.0 0.00 0.00 0.00 96 1015.1
20260507080328 3 355 0.0 0.0 0.00 0.00 0.00 96 1015.1
20260507075821 3 355 0.0 0.0 0.00 0.00 0.00 96 1015.0
20260507075334 3 355 0.0 0.0 0.00 0.00 0.00 96 1015.0
20260507074827 3 355 0.0 0.0 0.00 0.13 0.00 96 1015.0
20260507074323 3 355 0.0 0.0 0.00 0.13 0.00 96 1015.1
20260507073816 3 355 0.0 0.0 0.00 0.13 0.00 96 1015.1
20260507073326 4 355 0.0 0.0 0.00 0.13 0.00 96 1015.0
20260507072835 4 355 0.0 0.0 0.00 0.13 0.00 96 1015.1
20260507072336 4 355 0.0 0.0 0.00 0.13 0.00 96 1015.1
20260507071820 4 355 0.0 0.0 0.00 0.13 0.00 96 1015.0
20260507071333 4 355 0.0 0.0 0.00 0.13 0.00 96 1015.0
20260507070824 4 354 0.0 0.0 0.00 0.13 0.00 96 1015.0
20260507070336 4 355 0.0 0.0 0.00 0.13 0.00 96 1015.0
20260507065849 4 355 0.0 0.0 0.00 0.13 0.00 96 1015.0
20260507065320 4 355 0.0 0.0 0.00 0.13 0.00 96 1015.1
20260507064832 3 355 0.0 0.0 0.00 0.20 0.00 96 1015.2
20260507064324 3 355 0.0 0.0 0.00 0.20 0.00 96 1015.2
20260507063821 4 355 0.0 0.0 0.00 0.20 0.00 96 1015.2
20260507063314 3 355 0.0 0.0 0.00 0.20 0.00 96 1015.2
20260507062827 3 355 0.0 0.0 0.00 0.20 0.00 96 1015.3
20260507062319 3 355 0.0 0.0 0.00 0.20 0.00 96 1015.3
20260507061812 4 355 0.0 0.0 0.00 0.20 0.00 96 1015.3
20260507061325 4 355 0.0 0.0 0.00 0.20 0.00 96 1015.2
20260507060818 4 355 0.0 0.0 0.00 0.20 0.00 96 1015.3
20260507060315 4 355 0.0 0.0 0.00 0.20 0.00 96 1015.3
20260507055827 4 355 0.0 0.0 0.00 0.20 0.00 96 1015.3
20260507055320 4 355 0.0 0.0 0.00 0.20 0.00 96 1015.4
20260507054813 4 355 0.0 0.0 0.00 0.51 0.00 96 1015.3
20260507054346 4 355 0.0 0.0 0.00 0.51 0.00 95 1015.3
20260507053818 4 355 0.0 0.0 0.00 0.51 0.00 95 1015.4
20260507053351 4 355 0.0 0.0 0.00 0.51 0.00 95 1015.3
20260507052822 5 355 0.0 0.0 0.00 0.51 0.00 95 1015.4
20260507052315 5 355 0.0 0.0 0.00 0.51 0.00 96 1015.3
20260507051812 5 355 0.0 0.0 0.00 0.51 0.00 96 1015.3
20260507051325 5 355 0.0 1.6 0.00 0.51 0.00 96 1015.2
20260507050818 5 355 0.0 1.6 0.00 0.51 0.00 96 1015.3
20260507050351 5 355 0.0 0.0 0.00 0.51 0.00 95 1015.4
20260507045823 5 355 0.0 0.0 0.00 0.51 0.00 95 1015.4
20260507045336 5 355 0.0 0.0 0.00 0.51 0.00 96 1015.5
20260507044827 5 355 0.0 0.0 0.00 1.07 0.00 96 1015.5
20260507044320 5 355 0.0 0.0 0.00 1.07 0.00 96 1015.5
20260507043813 5 355 0.0 0.0 0.00 1.07 0.00 96 1015.5
20260507043326 5 355 0.0 0.0 0.00 1.07 0.00 96 1015.4
20260507042823 5 355 0.0 0.0 0.00 1.07 0.00 95 1015.4
20260507042316 4 355 0.0 0.0 0.00 1.07 0.00 95 1015.3
20260507041829 4 355 0.0 0.0 0.00 1.07 0.00 94 1015.4
20260507041321 5 355 0.0 0.0 0.00 1.07 0.00 94 1015.4
20260507040813 5 355 0.0 0.0 0.00 1.07 0.00 94 1015.4
20260507040327 5 355 0.0 0.0 0.00 1.07 0.00 94 1015.3
20260507035818 5 355 0.0 0.0 0.00 1.07 0.00 95 1015.3
20260507035315 5 355 0.0 0.0 0.00 1.07 0.00 95 1015.3
20260507034828 5 355 0.0 0.0 0.00 1.60 1.07 95 1015.3
20260507034320 5 355 0.0 0.0 0.00 1.60 1.07 95 1015.2
20260507033813 5 355 0.0 0.0 0.00 1.60 1.07 94 1015.2
20260507033326 6 355 0.0 0.0 0.00 1.60 1.07 94 1015.2
20260507032819 6 355 0.0 0.0 0.00 1.60 1.07 94 1015.2
20260507032312 6 355 0.0 0.0 0.00 1.60 1.07 94 1015.2
20260507031825 6 355 0.0 0.0 0.00 1.60 1.07 94 1015.1
20260507031322 6 355 0.0 0.0 0.00 1.60 1.07 95 1015.1
20260507030815 6 355 0.0 0.0 0.00 1.60 1.07 95 1015.2
20260507030348 6 355 0.0 0.0 0.00 1.60 1.07 93 1015.2
20260507025819 6 355 0.0 0.0 0.00 1.60 1.07 93 1015.2
20260507025312 6 355 0.0 0.0 0.00 1.60 1.07 93 1015.2
20260507024825 6 355 0.0 0.0 0.00 1.83 1.07 93 1015.3
20260507024338 6 355 0.0 0.0 0.00 1.83 1.07 92 1015.3
20260507023830 7 355 0.0 0.0 0.00 1.83 1.07 92 1015.3
20260507023322 7 355 0.0 0.0 0.00 1.83 1.07 92 1015.2
20260507022835 7 355 0.0 0.0 0.00 1.83 1.07 91 1015.3
20260507022311 7 355 0.0 0.0 0.00 1.83 1.07 89 1015.2
20260507021845 7 355 0.0 0.0 0.00 1.83 1.07 90 1015.2
20260507021316 7 355 0.0 0.0 0.00 1.83 1.07 90 1015.2
20260507020829 7 355 0.0 0.0 0.00 1.83 1.07 89 1015.0
20260507020321 7 355 0.0 0.0 0.00 1.83 1.07 89 1014.9
20260507015813 7 355 0.0 0.0 0.00 1.83 1.07 89 1014.8
20260507015326 7 355 0.0 0.0 0.00 1.83 1.07 88 1014.8
20260507014819 8 355 0.0 0.0 0.00 2.18 1.07 88 1014.9
20260507014332 7 355 0.0 0.0 0.00 2.18 1.07 88 1014.8
20260507013828 8 355 0.0 0.0 0.00 2.18 1.07 85 1014.7
20260507013321 8 355 0.0 0.0 0.00 2.18 1.07 85 1014.7
20260507012813 8 355 0.0 0.0 0.00 2.18 1.07 86 1014.6
20260507012327 8 355 0.0 0.0 0.00 2.18 1.07 86 1014.6
20260507011840 8 355 0.0 0.0 0.00 2.18 1.07 85 1014.4
20260507011311 8 355 0.0 0.0 0.00 2.18 1.07 84 1014.5
20260507010824 9 355 0.0 0.0 0.00 2.18 1.07 83 1014.5
20260507010317 9 355 0.0 0.0 0.00 2.18 1.07 82 1014.4
20260507005814 10 355 0.0 0.0 0.00 2.18 1.07 82 1014.5
20260507005347 10 355 0.0 0.0 0.00 2.18 1.07 82 1014.5
20260507004819 10 355 0.0 0.0 0.00 2.51 1.07 79 1014.4
20260507004311 10 355 0.0 0.0 0.00 2.51 1.07 77 1014.5
20260507003824 10 355 0.0 0.0 0.00 2.51 1.07 77 1014.5
20260507003317 11 355 0.0 0.0 0.00 2.51 1.07 75 1014.5
20260507002850 11 355 0.0 0.0 0.00 2.51 1.07 74 1014.4
20260507002322 11 355 0.0 0.0 0.00 2.51 1.07 70 1014.2
20260507001835 11 355 0.0 0.0 0.00 2.51 1.07 70 1014.2
20260507001347 12 355 0.0 0.0 0.00 2.51 1.07 69 1014.0
20260507000818 12 355 0.0 1.6 0.00 2.51 1.07 68 1014.0
20260507000315 12 355 0.0 1.6 0.00 2.51 1.07 67 1014.0
20260506235828 13 355 0.0 1.6 0.00 2.51 1.07 66 1014.0
20260506235321 13 355 0.0 3.2 0.00 2.51 1.07 66 1014.0
20260506234814 13 356 0.0 4.8 0.00 2.67 1.07 65 1013.9
20260506234347 13 8 1.6 4.8 0.00 2.67 1.07 65 1013.9
20260506233818 13 259 0.0 4.8 0.00 2.67 1.07 64 1014.0
20260506233330 13 9 0.0 4.8 0.00 2.67 1.07 65 1014.0
20260506232844 13 347 0.0 4.8 0.00 2.67 1.07 63 1013.9
20260506232315 13 157 0.0 4.8 0.00 2.67 1.07 64 1013.9
20260506231811 13 266 0.0 4.8 0.00 2.67 1.07 62 1013.7
20260506231325 13 77 0.0 6.4 0.00 2.67 1.07 61 1013.7
20260506230818 13 359 1.6 8.0 0.00 2.67 1.07 59 1013.8
20260506230330 13 337 3.2 8.0 0.00 2.67 1.07 58 1013.8
20260506225823 14 214 0.0 8.0 0.00 2.67 1.07 59 1013.7
20260506225316 14 322 1.6 12.9 0.00 2.67 1.07 59 1014.0
20260506224829 14 18 0.0 12.9 0.00 2.95 1.07 61 1014.0
20260506224322 14 276 6.4 11.3 0.00 2.95 1.07 60 1013.9
20260506223819 14 3 0.0 3.2 0.00 2.95 1.07 63 1013.8
20260506223311 14 288 1.6 9.7 0.00 2.95 1.07 61 1013.9
20260506222824 14 299 0.0 9.7 0.00 2.95 1.07 63 1014.1
20260506222316 14 31 0.0 9.7 0.00 2.95 1.07 61 1014.1
20260506221829 14 359 1.6 6.4 0.00 2.95 1.07 63 1014.2
20260506221342 14 281 1.6 6.4 0.00 2.95 1.07 63 1014.2
20260506220814 14 269 0.0 4.8 0.00 2.95 1.07 62 1014.1
20260506220327 14 288 0.0 6.4 0.00 2.95 1.07 64 1014.1
20260506215824 14 18 1.6 6.4 0.00 2.95 1.07 62 1014.2
20260506215336 14 263 0.0 6.4 0.00 2.95 1.07 62 1014.3
20260506214828 14 274 0.0 6.4 0.00 3.28 1.07 62 1014.3
20260506214320 14 120 1.6 6.4 0.00 3.28 1.07 61 1014.3
20260506213833 14 264 1.6 4.8 0.00 3.28 1.07 63 1014.1
20260506213325 14 264 1.6 8.0 0.00 3.28 1.07 62 1014.0
20260506212818 14 304 1.6 8.0 0.00 3.28 1.07 62 1013.9
20260506212351 15 315 1.6 9.7 0.00 3.28 1.07 61 1014.0
20260506211823 15 253 0.0 8.0 0.00 3.28 1.07 61 1013.9
20260506211315 14 2 1.6 9.7 0.00 3.28 1.07 62 1014.0
20260506210812 15 260 0.0 4.8 0.00 3.28 1.07 64 1013.9
20260506210325 15 327 1.6 9.7 0.00 3.28 1.07 64 1013.9
20260506205837 15 31 0.0 9.7 0.00 3.28 1.07 61 1013.8
20260506205329 15 359 3.2 8.0 0.00 3.28 1.07 58 1013.8
20260506204842 15 286 1.6 6.4 0.00 3.35 1.07 63 1013.7
20260506204314 15 51 0.0 9.7 0.00 3.35 1.07 65 1013.8
20260506203826 14 33 3.2 9.7 0.00 3.35 1.07 60 1013.7
20260506203319 14 358 1.6 6.4 0.00 3.35 1.07 59 1013.8
20260506202812 14 349 0.0 6.4 0.00 3.35 1.07 63 1013.8
20260506202329 14 343 1.6 6.4 0.00 3.35 1.07 61 1013.9
20260506201822 14 12 0.0 3.2 0.00 3.35 1.07 61 1013.9
20260506201315 14 335 0.0 11.3 0.00 3.35 1.07 63 1013.9
20260506200827 14 25 4.8 11.3 0.00 3.35 1.07 58 1013.8
20260506200320 14 41 0.0 4.8 0.00 3.35 1.07 62 1013.8
20260506195813 14 316 1.6 8.0 0.00 3.35 1.07 60 1013.9
20260506195327 14 352 1.6 8.0 0.00 3.35 1.07 58 1013.9
20260506194819 15 30 0.0 3.2 0.00 3.56 1.07 60 1013.8
20260506194316 14 302 0.0 4.8 0.00 3.56 1.07 63 1013.9
20260506193829 14 6 1.6 9.7 0.00 3.56 1.07 61 1013.7
20260506193321 15 296 1.6 11.3 0.00 3.56 1.07 59 1013.8
20260506192835 15 7 6.4 11.3 0.00 3.56 1.07 55 1013.8
20260506192346 15 343 1.6 8.0 0.00 3.56 1.07 58 1013.7